Location: Eurasberg
(48.3353°N, 11.0839°E)
Time: 19:57:45
(UTC+00:00)

SL-23 DEB - Pass Details

Date: 18 January 2026
Orbit: 423 x 3435 km, 51.4° (Epoch: 13 February)

Event Time Altitude Azimuth Distance (km) Brightness Sun altitude
Exits shadow 05:57:44 15° 277° (W) 1,262 5.0 -10.1°
Maximum altitude 06:00:13 52° 353° (N) 544 3.6 -9.8°
Drops below altitude 10° 06:03:41 10° 71° (ENE) 1,712 7.2 -9.2°
Sets 06:06:13 0° 77° (ENE) 2,825 8.5 -8.8°
